Weather History for KFMN - September, 2013

Change the Weather History Date:

Friday, September 6, 2013

  Actual Average Record
Temperature  
Mean Temperature 78 °F -  
Max Temperature 93 °F 82 °F 93 °F (2012)
Min Temperature 62 °F 53 °F 43 °F (2004)
Cooling Degree Days 12    
Growing Degree Days 28 (Base 50)    
Moisture  
Dew Point 36 °F    
Average Humidity 22    
Maximum Humidity 44    
Minimum Humidity 6    
Precipitation  
Precipitation 0.00 in - - ()
Sea Level Pressure  
Sea Level Pressure 30.00 in    
Wind  
Wind Speed 7 mph (East)    
Max Wind Speed 12 mph    
Max Gust Speed -    
Visibility 10 miles    
Events      
Averages and records for this station are not official NWS values.
T = Trace of Precipitation, MM = Missing Value Source: NWS Daily Summary

Daily Weather History Graph

Daily Weather History Graph

Search for Another Location

Airport or City:

Trip Planner

Search our weather history database for the weather conditions in past years. The results will help you decide how hot, cold, wet, or windy it might be!

Date:

Astronomy

Sep. 06, 2013 Rise Set
Actual Time 6:48 AM MDT 7:33 PM MDT
Civil Twilight 6:21 AM MDT 7:59 PM MDT
Nautical Twilight 5:50 AM MDT 8:30 PM MDT
Astronomical Twilight 5:19 AM MDT 9:02 PM MDT
Moon 8:00 AM MDT (9/6) 8:03 PM MDT (9/6)
Length of Visible Light 13h 37m
Length of Day
12h 45m
New Moon, 2% of the Moon is Illuminated
Sep 6
New Moon
Sep 12
First Quarter
Sep 19
Full
Sep 26
Last Quarter
Oct 4
New

Hourly Weather History & Observations

Time (MDT) Temp. Dew Point Humidity Pressure Visibility Wind Dir Wind Speed Gust Speed Precip Events Conditions
12:53 AM 78.1 °F 28.0 °F 16% 30.01 in 10.0 mi Variable 6.9 mph - N/A   Mostly Cloudy
1:53 AM 70.0 °F 32.0 °F 25% 30.04 in 10.0 mi Variable 3.5 mph - N/A   Clear
2:53 AM 68.0 °F 34.0 °F 28% 30.05 in 10.0 mi East 9.2 mph - N/A   Mostly Cloudy
3:53 AM 66.9 °F 37.9 °F 34% 30.05 in 10.0 mi East 11.5 mph - N/A   Clear
4:53 AM 64.0 °F 39.9 °F 41% 30.06 in 10.0 mi East 9.2 mph - N/A   Clear
5:53 AM 64.0 °F 39.9 °F 41% 30.07 in 10.0 mi East 6.9 mph - N/A   Clear
6:53 AM 62.1 °F 39.9 °F 44% 30.09 in 10.0 mi East 8.1 mph - N/A   Clear
7:53 AM 64.0 °F 39.9 °F 41% 30.11 in 10.0 mi East 5.8 mph - N/A   Clear
8:53 AM 70.0 °F 41.0 °F 35% 30.12 in 10.0 mi East 6.9 mph - N/A   Clear
9:53 AM 75.9 °F 37.9 °F 25% 30.10 in 10.0 mi East 6.9 mph - N/A   Clear
10:53 AM 81.0 °F 37.0 °F 21% 30.08 in 10.0 mi East 5.8 mph - N/A   Clear
11:53 AM 84.0 °F 37.9 °F 19% 30.04 in 10.0 mi SSE 5.8 mph - N/A   Clear
12:53 PM 88.0 °F 37.0 °F 16% 30.01 in 10.0 mi Calm Calm - N/A   Clear
1:53 PM 90.0 °F 35.1 °F 14% 29.99 in 10.0 mi Variable 3.5 mph - N/A   Clear
2:53 PM 91.9 °F 34.0 °F 13% 29.96 in 10.0 mi SW 9.2 mph - N/A   Scattered Clouds
3:53 PM 90.0 °F 33.1 °F 13% 29.94 in 10.0 mi Variable 3.5 mph - N/A   Partly Cloudy
4:53 PM 91.9 °F 34.0 °F 13% 29.92 in 10.0 mi West 11.5 mph - N/A   Clear
5:53 PM 91.0 °F 34.0 °F 13% 29.90 in 10.0 mi West 9.2 mph - N/A   Clear
6:53 PM 88.0 °F 34.0 °F 15% 29.91 in 10.0 mi West 5.8 mph - N/A   Clear
7:53 PM 81.0 °F 34.0 °F 18% 29.92 in 10.0 mi NW 3.5 mph - N/A   Clear
8:53 PM 81.0 °F 33.1 °F 18% 29.92 in 10.0 mi Calm Calm - N/A   Clear
9:53 PM 71.1 °F 34.0 °F 26% 29.94 in 10.0 mi NNE 3.5 mph - N/A   Clear
10:53 PM 70.0 °F 35.1 °F 28% 29.94 in 10.0 mi NE 8.1 mph - N/A   Clear
11:53 PM 71.1 °F 39.0 °F 31% 29.95 in 10.0 mi East 10.4 mph - N/A   Clear